Overview Statistics Trail Chart Weather Telemetry Raw packets
 

This is the latest recevied weather packets stored in our database for station/object KC1TEM-13. If no packets are shown the sender has not sent any weather packets the latest 10 day(s).

<< 110 111 112 113 114 >>
Time Temp. Humidity Pressure Rain* Wind** Luminosity Snow
1787783709 22.78° C 74% 1017.5 hPa 0 mm - 21 W/m² -
1787783408 23.33° C 73% 1017.5 hPa 0 mm - 24 W/m² -
1787783104 23.33° C 70% 1017.4 hPa 0 mm - 26 W/m² -
1787782803 23.33° C 72% 1017.4 hPa 0 mm - 27 W/m² -
1787782499 23.89° C 71% 1017.2 hPa 0 mm - 29 W/m² -
1787782198 23.89° C 70% 1017.6 hPa 0 mm - 35 W/m² -
1787781894 23.89° C 70% 1017.4 hPa 0 mm - 32 W/m² -
1787781593 23.89° C 68% 1017.5 hPa 0 mm - 34 W/m² -
1787781292 23.89° C 69% 1017.4 hPa 0 mm - 35 W/m² -
1787780989 23.89° C 68% 1017.5 hPa 0 mm - 36 W/m² -
1787780685 23.89° C 67% 1017.3 hPa 0 mm - 37 W/m² -
1787780379 24.44° C 68% 1017.5 hPa 0 mm - 39 W/m² -
1787780077 24.44° C 68% 1017.2 hPa 0 mm - 51 W/m² -
1787779777 24.44° C 68% 1017.5 hPa 0 mm - 44 W/m² -
1787779476 24.44° C 66% 1017.6 hPa 0 mm - 59 W/m² -
1787779176 25° C 65% 1017.4 hPa 0 mm - 50 W/m² -
1787778871 25° C 62% 1017.5 hPa 0 mm - 50 W/m² -
1787778567 25.56° C 61% 1017.3 hPa 0 mm - 91 W/m² -
1787778263 26.11° C 59% 1017.6 hPa 0 mm - 228 W/m² -
1787777963 26.11° C 59% 1017.6 hPa 0 mm - 142 W/m² -
1787777658 26.11° C 61% 1017.4 hPa 0 mm - 278 W/m² -
1787777354 26.11° C 63% 1017.5 hPa 0 mm - 296 W/m² -
1787777053 25.56° C 63% 1017.3 hPa 0 mm - 330 W/m² -
1787776753 26.11° C 63% 1017.5 hPa 0 mm - 97 W/m² -
1787776451 26.11° C 62% 1017.4 hPa 0 mm - 356 W/m² -

* Rain latest hour (hover to see other rain measurements)
** Current wind speed in m/s (hover to see current wind gust speed)